Other Public Products
Issued by NWS Grand Forks, ND

Home | Current Version | Previous Version | Text Only | Print | Product List | Glossary Off
Versions: 1 2 3 4 5 6 7 8 9 10 11 12 13 14 15 16 17 18 19 20 21 22 23 24 25 26 27 28 29 30 31 32 33 34 35 36 37 38 39 40 41 42 43 44 45 46 47 48 49 50

000
FPUS83 KFGF 271010
OPUFGF
PRAIRIE TO PINES WEATHER ROUNDUP
NATIONAL WEATHER SERVICE EASTERN NORTH DAKOTA/GRAND FORKS ND
500 AM CDT WED JUL 27 2016

 **SATELLITE DATA USED TO AUGMENT SKY COVER AT AUTOMATED STATIONS**
 *****  WEATHER ACROSS EASTERN NORTH DAKOTA  *****

CITY           SKY/WX    TMP DP  RH WIND       PRES   REMARKS
GRAND FORKS    CLOUDY    64  60  87 N7        30.04R
GRAND FORKS AF CLOUDY    64  60  89 N9        30.05R
GRAND CITY NWS   N/A     63 N/A N/A N7          N/A
BUXTON           N/A     64  64  99 NE5         N/A
DEVILS LAKE    CLOUDY    61  58  90 NE8       30.10R
FARGO          LGT RAIN  68  65  90 NW8       29.99F
WAHPETON ARPT  CLOUDY    64  63  94 N7        29.96F
$$

 *****  WEATHER ACROSS CENTRAL AND WESTERN NORTH DAKOTA  *****

CITY           SKY/WX    TMP DP  RH WIND       PRES   REMARKS
JAMESTOWN      PTCLDY    61  60  97 NW7       30.04R
BISMARCK       CLEAR     62  60  93 N7        30.07S
MINOT          CLEAR     61  58  90 N6        30.09F
MINOT AFB      CLEAR     60  56  85 E3        30.09R
GARRISON         N/A     59  58  96 N3        30.08F
WILLISTON      CLOUDY    59  53  80 NW7       30.12R
DICKINSON      CLOUDY    54  53  97 CALM      30.08S
HETTINGER      CLEAR     54  52  93 W3        30.11R
$$

 *****  OTHER OBSERVATIONS NORTHEAST NORTH DAKOTA  *****

CITY           SKY/WX    TMP DP  RH WIND       PRES   REMARKS
WALHALLA       NOT AVBL
LANGDON        CLOUDY    59  55  88 E6        30.11R
CAVALIER       CLOUDY    59  55  88 N8        30.08S
GRAFTON        FAIR      61  59  94 N8        30.08R
CANDO          NOT AVBL
FORT TOTTEN      N/A     62  60  94 NE5       29.95S
ROLLA          CLOUDY    59  55  88 N5        30.13S
RUGBY          NOT AVBL
 ***** THE ABOVE OBSERVATIONS ARE NON NWS ARE NOT QUALITY
        CONTROLLED AND MAY MIS-REPORT RAIN FOR SNOW...
$$

 *****  OTHER OBSERVATIONS SOUTHEAST NORTH DAKOTA *****

CITY           SKY/WX    TMP DP  RH WIND       PRES   REMARKS
COOPERSTOWN    NOT AVBL
VALLEY CITY    CLOUDY    64  64 100 E10G16    30.05R
OAKES            N/A    N/A N/A N/A MISG        N/A
GWINNER        FAIR      64  64 100 N12       29.99R
SHEYENNE NWR     N/A     66  65  98 E3        29.95S
BUFFALO          N/A     64  61  88 N3          N/A
WYNDMERE       NOT AVBL
 ***** THE ABOVE OBSERVATIONS ARE NON NWS ARE NOT QUALITY
       CONTROLLED AND MAY MIS-REPORT RAIN FOR SNOW...
$$

  *****  WEATHER ACROSS NORTHERN MINNESOTA  *****

CITY           SKY/WX    TMP DP  RH WIND       PRES   REMARKS
FLAG ISLAND    PTCLDY    64  55  72 NE8       30.04R
WARROAD        NOT AVBL
ROSEAU         MOCLDY    57  52  82 CALM      30.05R
HALLOCK        MOCLDY    59  55  88 N5        30.06R
THF RVR FALLS  CLOUDY    62  57  83 N7        30.04R
HALSTAD          N/A     64  61  91 N7          N/A
FOSSTON        CLOUDY    63  55  77 N8        30.02R
BAUDETTE       CLOUDY    64  55  72 N6        30.02R
WASKISH        LGT RAIN  63  57  82 N3        30.01R
CROOKSTON      CLOUDY    64  61  88 SE3       30.03R
$$
  *****  WEATHER ACROSS CENTRAL AND WEST MINNESOTA  *****

CITY           SKY/WX    TMP DP  RH WIND       PRES   REMARKS
BEMIDJI        CLOUDY    64  59  82 N6        30.00S
PARK RAPIDS    CLOUDY    69  63  81 N10       29.96F
WADENA         CLOUDY    66  64  94 CALM      29.95F
DETROIT LAKES  CLOUDY    66  64  94 N7        29.99F
MOORHEAD       LGT RAIN  66  64  94 NW3       30.00S
FERGUS FALLS   CLOUDY    64  64 100 NW10      29.98F
ELBOW LAKE     TSTM      65  65  98 N10       29.97F
MORRIS MN      TSTM      64  63  94 CALM      29.96R
STAPLES        CLOUDY    64  63  94 CALM      29.95F
WHEATON        TSTM      66  66 100 NE9       29.95F
$$
  *****  WEATHER ELSEWHERE ACROSS MINNESOTA  *****

CITY           SKY/WX    TMP DP  RH WIND       PRES   REMARKS
DULUTH         CLOUDY    68  67  96 CALM      29.98R
INTRNTL FALLS  CLOUDY    66  56  70 NE5       30.01R
ELY            CLOUDY    64  57  77 CALM      30.01S
CLOQUET        MOCLDY    66  61  82 CALM      29.97S
BRAINERD       CLOUDY    64  62  93 CALM      29.96F
HIBBING        CLOUDY    66  57  72 NE6       29.98S
ALEXANDRIA     CLOUDY    69  67  93 W8        29.98F
SAINT CLOUD    LGT RAIN  67  67 100 CALM      29.94F
MINNEAPOLIS    CLOUDY    77  68  73 SW7       29.96F
$$

  *****  WEATHER ACROSS SOUTH DAKOTA  *****

CITY           SKY/WX    TMP DP  RH WIND       PRES   REMARKS
SIOUX FALLS    CLOUDY    73  59  61 SW5       29.94S
BROOKINGS      NOT AVBL
WATERTOWN      CLOUDY    65  63  93 N9        29.97R
HURON          CLOUDY    68  66  93 W10       29.96R
SISSETON         N/A     66  65  96 NE3       29.93F
ABERDEEN       MOCLDY    66  63  90 N7        29.99R
MITCHELL       CLOUDY    69  62  78 NW9       29.97S
PIERRE         CLEAR     62  60  93 NE6       29.99R
MOBRIDGE       CLOUDY    66  62  87 NW5       30.02R
RAPID CITY     CLOUDY    62  60  93 NW13      30.09R
$$

  *****  SOME WEATHER IN NEARBY STATES *****

CITY           SKY/WX    TMP DP  RH WIND       PRES   REMARKS
GLASGOW MT     CLOUDY    61  60  97 S10       30.08R
GREAT FALLS MT CLEAR     53  51  93 SW5       30.14F
CHEYENNE WY    CLEAR     57  45  64 NW5       30.22R
SCOTTSBLUFF NE PTCLDY    66  58  75 SE10      30.12R
OMAHA NE       CLOUDY    72  66  81 SE9       29.96F
DES MOINES IA  PTCLDY    71  66  84 CALM      30.00S
DAVENPORT IA   CLEAR     63  61  93 CALM      30.02R
CHICAGO IL     PTCLDY    71  64  78 N3        30.01R
EAU CLAIRE WI  MOCLDY    69  67  93 CALM      29.97F
LA CROSSE WI   CLEAR     71  69  93 SE7       30.00R
$$

  *****  SOME NATIONAL WEATHER *****

CITY           SKY/WX    TMP DP  RH WIND       PRES   REMARKS
LA GUARDIA NY  CLOUDY    77  63  61 E5        29.94R
RALEIGH NC     CLOUDY    76  74  93 CALM      29.97R
ATLANTA GA     MOCLDY    75  73  93 SW5       30.05R
NEW ORLEANS LA CLOUDY    78  73  84 SW5       29.97S
OKLAHOMA CITY  PTCLDY    74  70  87 CALM      29.97R
ALBUQUERQUE NM CLOUDY    70  59  68 SE8       30.20S
SALT LAKE CITY CLEAR     74  40  29 SW3       30.05R
LOS ANGELES CA PTCLDY    69  64  84 W5        29.87F
BOISE ID       CLEAR     70  51  51 S5        29.98R
SEATTLE WA     CLEAR     58  57  97 W3        30.11S
$$

*** WEATHER ACROSS MANITOBA...SASKATCHEWAN AND ONTARIO ***
                ***ONTARIO***

CITY           SKY/WX    TMP DP  RH WIND       PRES   REMARKS
GERALDTON      PTCLDY    57  52  82 N7        30.01R
THUNDER BAY    PTCLDY    54  52  94 SW6       30.01R
SIOUX LOOKOUT  PTCLDY    50  50 100 VRB2      30.07R
TORONTO        MOCLDY    68  59  73 VRB2      29.95S
BIG TROUT LK   NOT AVBL
PICKLE LAKE    NOT AVBL
DRYDEN         CLEAR     57  54  88 NE8       30.06R
KENORA         MOCLDY    59  54  82 NE9       30.07R
$$
                *** MANITOBA***

CITY           SKY/WX    TMP DP  RH WIND       PRES   REMARKS
BRANDON        PTCLDY    54  52  94 NE6       30.14R
DAUPHIN        CLEAR     48  48 100 SW7       30.16R
ISLAND LAKE    CLOUDY    57  54  88 E3        30.15R
PILOT MOUND      N/A     57  54  88 NE6         N/A
THE PAS        PTCLDY    55  54  94 SE5       30.17R
THOMPSON       CLEAR     37  36  93 CALM      30.18S FOG
WINNIPEG       PTCLDY    50  50 100 NW5       30.10R
LYNN LAKE      CLEAR     50  48  93 MISG      30.13S
CHURCHILL      PTCLDY    48  46  93 NW6       30.13S
GILLAM         CLOUDY    55  52  88 NW8       30.15S
$$
                ***SASKATCHEWAN***

CITY           SKY/WX    TMP DP  RH WIND       PRES   REMARKS
ESTEVAN        NOT AVBL
KINDERSLEY     PTCLDY    57  54  88 SE7       30.13S
LLOYDMINSTER   PTCLDY    57  52  82 S8        30.11S
PRINCE ALBERT  PTCLDY    52  50  93 CALM      30.15R
REGINA         CLEAR     57  50  77 E5        30.15R
YORKTON        CLEAR     52  52 100 SE2       30.15S   C1F1C2F2C3F3C4F4C5F5C6F6C7F7C8F8C9F9CaFaCbFbCcFcCdFdCe!


USA.gov is the U.S. government's official web portal to all federal, state and local government web resources and services.